[[{"header":{"parameterUnit":"m.s-1","parameterCategory":1,"la1":30.2991,"la2":30.254,"lo1":-89.0895,"lo2":-89.0444,"dy":0.0017,"dx":0.0017,"nx":28,"ny":28,"refTime":"2025-07-08T03:00:00:Z","depth":0,"parameterNumber":2,"parameterNumberName":"U-component_of_WINDS"},"data":[0,0,0,0,0,0,0,0,0,0,0,0,0,0,0,0,0,0,0,0,0,0,0,0,0,0,0,0,0,0,0,0,0,0,0,0,0,0,0,0,0,0,0,0,0,0,0,0,0,0,0,0,0,0,0,0,0,0,2.5591,2.5591,0,2.5615,2.5616,2.5616,2.5546,2.5544,2.5542,2.554,2.5569,2.5572,2.5575,0,0,0,0,0,0,0,0,0,0,0,0,0,2.5487,2.5489,2.5591,2.5591,2.5592,2.5615,2.5616,2.5616,2.5546,2.5544,2.5541,2.5539,2.5568,2.5572,2.5575,0,0,0,0,0,0,0,0,0,0,0,0,0,2.5524,2.549,2.5591,2.556,2.5557,2.5615,2.5616,2.5616,2.5547,2.5544,2.554,2.5537,2.5567,2.5571,2.5575,2.5667,0,0,2.5588,2.559,0,0,0,0,0,0,0,0,2.5522,2.5528,2.5564,2.5562,2.5559,2.5574,2.559,2.5633,2.5548,2.5551,2.554,2.5536,2.5574,2.5577,2.5589,2.5668,2.5669,2.5589,2.5591,2.5593,2.5594,0,0,0,0,0,0,0,2.5519,2.5526,2.5601,2.5565,2.5562,2.5545,2.5547,2.5598,2.5581,2.555,2.5545,2.5549,2.5572,2.5585,2.5589,2.567,2.5589,2.5592,2.5595,2.5597,2.5821,2.5825,0,0,0,0,0,0,2.552,2.5525,2.56,2.5601,2.5532,2.555,2.5551,2.5573,2.558,2.5578,2.5552,2.5546,2.558,2.5585,2.559,2.5695,2.5593,2.5597,2.5599,2.5818,2.5822,2.5826,0,0,0,0,0,0,2.5518,2.5528,2.5599,2.5562,2.5569,2.5555,2.5579,2.5575,2.5588,2.5581,2.5578,2.5568,2.5577,2.5584,2.5647,2.5695,2.5599,2.5603,2.5814,2.5819,2.5824,2.5908,0,0,0,0,0,0,2.5516,2.5527,2.5562,2.5563,2.5572,2.5655,2.5582,2.5578,2.5595,2.5587,2.5595,2.5594,2.5575,2.5641,2.5651,2.5699,2.5606,2.5809,2.5816,2.5822,2.59,2.5915,2.5927,0,0,0,0,0,2.5512,2.5586,2.5564,2.5573,2.5614,2.5658,2.5663,2.5639,2.5599,2.5633,2.5628,2.5593,2.5688,2.5648,2.5659,2.5709,2.5806,2.5814,2.5822,2.5894,2.5912,2.5927,0,0,0,0,0,0,2.5593,2.5585,2.5561,2.5637,2.5648,2.5646,2.5689,2.5659,2.5684,2.5676,2.5646,2.5649,2.5717,2.5719,2.5675,2.5796,2.5741,2.5751,2.5792,2.5809,2.5822,2.582,2.5609,0,0,0,0,0,2.5619,2.5655,2.5647,2.5715,2.5721,2.5704,2.5723,2.5703,2.5714,2.5719,2.5719,2.5732,2.5764,2.5787,2.5817,2.59,2.59,2.594,2.5953,2.5964,2.5974,2.6016,2.6033,2.5851,2.5851,2.5851,0,0,2.5675,2.5675,2.57,2.5731,2.5737,2.5775,2.5709,2.5753,2.578,2.5726,2.5785,2.5785,2.5798,2.587,2.5903,2.5875,2.6023,2.5974,2.5983,2.5986,2.6026,2.6043,2.6058,2.5856,2.5856,2.5855,0,0,2.5795,2.5799,2.5855,2.5862,2.5871,2.5859,2.5872,2.5874,2.5871,2.5929,2.5888,2.5921,2.5979,2.5988,2.6001,2.6122,2.609,2.6132,2.6203,2.6244,2.6259,2.6271,2.6313,2.6328,2.6142,2.6142,2.6142,0,2.5863,2.5917,2.5888,2.5933,2.5947,2.5897,2.5953,2.5962,2.5982,2.5993,2.5961,2.603,2.6035,2.6109,2.6138,2.615,2.6164,2.6131,2.6259,2.6271,2.6282,2.6321,2.6337,2.6147,2.6146,2.6146,2.6145,0,2.6,2.6038,2.6082,2.6099,2.6118,2.6169,2.6147,2.6171,2.6148,2.6139,2.6198,2.6202,2.623,2.6246,2.6227,2.6317,2.6299,2.6263,2.6207,2.6305,2.6341,2.6356,2.6154,2.6152,2.6151,2.6149,0,0,2.6173,2.6171,2.6188,2.6194,2.6199,2.6229,2.6277,2.6302,2.6322,2.6337,2.6376,2.6424,2.639,2.6404,2.6385,2.6421,2.6514,2.6381,2.638,2.6404,2.6612,2.6638,2.6656,2.6493,2.6496,2.6498,2.661,0,2.629,2.637,2.6344,2.6425,2.6459,2.6411,2.6452,2.6461,2.6453,2.6481,2.6473,2.6507,2.646,2.6468,2.6502,2.6496,2.6555,2.6487,2.6529,2.6531,2.6527,2.6675,2.6704,2.681,2.6624,2.6627,2.6628,0,2.6438,2.6455,2.654,2.6537,2.655,2.6588,2.6607,2.6635,2.6643,2.6635,2.6649,2.6621,2.6667,2.661,2.6674,2.6628,2.6643,2.6642,2.6646,2.6649,2.6586,2.6681,2.6843,2.6859,2.6651,2.6649,2.6648,0,2.6554,2.6599,2.6655,2.6662,2.666,2.6687,2.6688,2.6692,2.6709,2.6727,2.6737,2.6761,2.6774,2.6793,2.6772,2.6732,2.6838,2.678,2.6832,2.6833,2.6857,2.6856,2.7023,2.6868,2.6868,2.6867,2.6867,0,2.6688,2.6741,2.6706,2.6741,2.6798,2.6767,2.6825,2.6821,2.6825,2.6857,2.6818,2.6849,2.682,2.6849,2.6833,2.6886,2.6893,2.6888,2.6883,2.6891,2.6892,2.6901,2.6893,2.6872,2.6871,2.687,2.6869,0,2.6828,2.6807,2.6864,2.6856,2.6856,2.6899,2.6892,2.6924,2.6912,2.6953,2.6961,2.6944,2.6975,2.6956,2.6989,2.6978,2.7048,2.7033,2.7045,2.7041,2.7094,2.7089,2.7272,2.7294,2.7126,2.7128,2.7129,0,2.6914,2.6953,2.6949,2.6967,2.6969,2.6999,2.7014,2.6985,2.7003,2.7012,2.7043,2.707,2.7091,2.7144,2.7134,2.7159,2.7144,2.7206,2.7147,2.7153,2.7143,2.7141,2.7144,2.7218,2.722,2.7222,2.7223,0,2.7069,2.7056,2.7078,2.7097,2.7116,2.713,2.7141,2.7158,2.7128,2.715,2.718,2.7196,2.7227,2.7255,2.7275,2.7276,2.7245,2.7241,2.7255,2.7263,2.7268,2.7265,2.7076,2.7238,2.7236,2.7235,2.7234,2.7234,2.7184,2.7215,2.7216,2.7242,2.7247,2.7257,2.7285,2.7275,2.73,2.7322,2.7303,2.7339,2.7344,2.7367,2.7372,2.74,2.7375,2.7394,2.7399,2.7404,2.7411,2.7263,2.7404,2.7403,2.7403,2.7402,2.7402,0,2.7335,2.7333,2.7357,2.7371,2.7392,2.7358,2.7367,2.7387,2.7418,2.7425,2.7444,2.7479,2.7504,2.7496,2.7519,2.7543,2.7529,2.755,2.7548,2.7548,2.7433,2.7419,2.7561,2.7561,2.7561,2.7561,2.7561,2.756,2.7417,2.7467,2.7454,2.7506,2.7503,2.7537,2.7545,2.7554,2.7558,2.7597,2.7618,2.7611,2.7611,2.7633,2.7655,2.7652,2.7662,2.7688,2.768,2.7572,2.7557,2.7542,2.7528,2.7691,2.7691,2.7792,2.7793,2.7794]},{"header":{"parameterUnit":"m.s-1","parameterCategory":1,"la1":30.2991,"la2":30.254,"lo1":-89.0895,"lo2":-89.0444,"dy":0.0017,"dx":0.0017,"nx":28,"ny":28,"refTime":"2025-07-08T03:00:00:Z","depth":0,"parameterNumber":3,"parameterNumberName":"V-component_of_WINDS"},"data":[0,0,0,0,0,0,0,0,0,0,0,0,0,0,0,0,0,0,0,0,0,0,0,0,0,0,0,0,0,0,0,0,0,0,0,0,0,0,0,0,0,0,0,0,0,0,0,0,0,0,0,0,0,0,0,0,0,0,3.0048,3.0048,0,3.0102,3.0103,3.0103,3.0069,3.0067,3.0065,3.0064,3.0115,3.0118,3.0121,0,0,0,0,0,0,0,0,0,0,0,0,0,2.9909,2.9912,3.0047,3.0048,3.0049,3.0102,3.0103,3.0103,3.0069,3.0067,3.0065,3.0063,3.0114,3.0118,3.0121,0,0,0,0,0,0,0,0,0,0,0,0,0,2.9967,2.9913,3.0047,3.0038,3.0038,3.0102,3.0103,3.0103,3.0069,3.0067,3.0064,3.0062,3.0113,3.0117,3.0122,3.0196,0,0,3.0135,3.0137,0,0,0,0,0,0,0,0,2.9964,2.9972,3.0039,3.0039,3.0039,3.0076,3.0073,3.0134,3.007,3.0057,3.0064,3.0061,3.0104,3.0109,3.0124,3.0199,3.0201,3.0135,3.0138,3.014,3.0141,0,0,0,0,0,0,0,2.996,2.997,3.0069,3.004,3.004,3.003,3.0035,3.0084,3.0093,3.0058,3.0056,3.0063,3.0103,3.012,3.0125,3.0202,3.0135,3.0139,3.0142,3.0143,3.034,3.0342,0,0,0,0,0,0,2.9957,2.9966,3.0067,3.007,2.9995,3.0034,3.004,3.0066,3.0093,3.0094,3.0065,3.0061,3.0114,3.012,3.0127,3.0216,3.014,3.0144,3.0146,3.0337,3.0341,3.0343,0,0,0,0,0,0,2.9954,2.9967,3.0065,3.0018,3.003,3.0039,3.0069,3.0069,3.0086,3.0098,3.0099,3.0081,3.0112,3.0121,3.018,3.0217,3.0146,3.0149,3.0334,3.0338,3.0342,3.0396,0,0,0,0,0,0,2.9951,2.9966,2.9995,3.0019,3.0032,3.0118,3.0071,3.0072,3.0094,3.0089,3.0113,3.0114,3.0111,3.0173,3.0184,3.0222,3.0153,3.0331,3.0336,3.0341,3.039,3.0401,3.041,0,0,0,0,0,2.9946,3.0007,2.9997,3.0009,3.007,3.0121,3.0128,3.0124,3.0097,3.0126,3.0134,3.0114,3.0212,3.018,3.0191,3.0231,3.0328,3.0335,3.034,3.0386,3.0399,3.041,0,0,0,0,0,0,2.9986,3.001,2.9999,3.007,3.0094,3.0115,3.0151,3.0138,3.0168,3.0163,3.0155,3.0161,3.0223,3.0232,3.0197,3.0305,3.0265,3.0274,3.0296,3.0308,3.0318,3.0314,3.0156,0,0,0,0,0,3.0004,3.0044,3.0062,3.0123,3.0136,3.0142,3.0164,3.0159,3.0182,3.0192,3.0204,3.0226,3.0262,3.0285,3.0319,3.0391,3.0396,3.0425,3.0434,3.0442,3.045,3.0489,3.0502,3.0363,3.0363,3.0363,0,0,3.004,3.0058,3.0084,3.0132,3.015,3.0191,3.015,3.0195,3.0226,3.0198,3.0255,3.0264,3.0289,3.0355,3.0385,3.0365,3.0489,3.045,3.0456,3.0459,3.0496,3.0509,3.0521,3.0367,3.0366,3.0366,0,0,3.0126,3.0144,3.0198,3.0216,3.0244,3.0248,3.026,3.0284,3.0289,3.0347,3.0327,3.0362,3.0423,3.0442,3.0459,3.0553,3.0536,3.0564,3.0615,3.0653,3.0664,3.0673,3.0707,3.0719,3.0571,3.0571,3.0572,0,3.0167,3.023,3.0226,3.0273,3.0295,3.0273,3.0326,3.0344,3.0381,3.0396,3.0374,3.0451,3.0466,3.0536,3.0559,3.0574,3.0587,3.0561,3.0663,3.0672,3.0681,3.0713,3.0726,3.0575,3.0574,3.0574,3.0574,0,3.0279,3.0323,3.0362,3.04,3.0426,3.0476,3.0478,3.0504,3.0497,3.0502,3.056,3.0577,3.0614,3.063,3.0623,3.0699,3.0687,3.0664,3.0624,3.0698,3.0728,3.074,3.0579,3.0578,3.0577,3.0576,0,0,3.0393,3.0429,3.0443,3.046,3.0489,3.0522,3.0571,3.0608,3.0631,3.0657,3.0697,3.0749,3.0729,3.0749,3.0743,3.0776,3.085,3.0749,3.075,3.0768,3.0935,3.0953,3.0967,3.0838,3.0841,3.0843,3.0933,0,3.0482,3.0568,3.0566,3.0646,3.0686,3.0666,3.0708,3.0729,3.0736,3.0769,3.0775,3.0813,3.0783,3.0795,3.0827,3.0834,3.0883,3.0827,3.0875,3.0877,3.087,3.0983,3.1001,3.1086,3.0945,3.0947,3.0949,0,3.0597,3.0629,3.0714,3.0737,3.0754,3.0792,3.0826,3.0859,3.0883,3.0885,3.0907,3.0896,3.0944,3.0903,3.0968,3.093,3.0949,3.0955,3.0959,3.0963,3.0917,3.0991,3.1113,3.1126,3.0967,3.0965,3.0964,0,3.0673,3.0736,3.0795,3.081,3.0839,3.0866,3.0879,3.0901,3.0923,3.0953,3.0967,3.1001,3.102,3.1045,3.1043,3.1014,3.111,3.1068,3.1112,3.1112,3.1134,3.1133,3.1262,3.1145,3.1145,3.1145,3.1145,0,3.0773,3.0825,3.0829,3.0866,3.0923,3.092,3.0976,3.0986,3.1006,3.1042,3.1026,3.1061,3.1056,3.109,3.1088,3.1143,3.1151,3.1154,3.1153,3.1156,3.1155,3.1168,3.1162,3.1148,3.1147,3.1147,3.1146,0,3.0867,3.0872,3.0935,3.0957,3.0964,3.1006,3.1024,3.1058,3.1063,3.111,3.112,3.1127,3.1167,3.1168,3.1212,3.1211,3.1278,3.127,3.1271,3.1269,3.1313,3.131,3.1456,3.1475,3.1346,3.1347,3.1348,0,3.0931,3.0971,3.0998,3.1023,3.1038,3.1077,3.11,3.1098,3.1122,3.1153,3.1183,3.1221,3.1252,3.1316,3.1324,3.1358,3.1351,3.14,3.1356,3.1358,3.1352,3.135,3.1354,3.1409,3.141,3.1411,3.1412,0,3.1043,3.1044,3.1079,3.1116,3.1145,3.1173,3.1199,3.122,3.122,3.1248,3.129,3.1313,3.136,3.1398,3.1431,3.1443,3.1428,3.1426,3.1438,3.1442,3.1441,3.1442,3.1295,3.1423,3.1422,3.1421,3.142,3.142,3.1124,3.1159,3.1185,3.1224,3.1244,3.1269,3.1302,3.1312,3.1347,3.1385,3.1381,3.1427,3.1449,3.1492,3.1507,3.1542,3.1525,3.1542,3.1546,3.1551,3.1556,3.1435,3.1547,3.1547,3.1547,3.1547,3.1546,0,3.1237,3.1252,3.1289,3.1327,3.1358,3.1342,3.137,3.1397,3.1438,3.1461,3.1492,3.1539,3.1576,3.1588,3.1623,3.1649,3.1643,3.1658,3.1657,3.166,3.1569,3.1555,3.1663,3.1663,3.1663,3.1663,3.1663,3.1663,3.1299,3.1357,3.1361,3.1429,3.1443,3.1489,3.1507,3.1529,3.1547,3.1602,3.1633,3.1641,3.1659,3.1695,3.1728,3.1731,3.1744,3.1763,3.1763,3.1678,3.1666,3.1655,3.1642,3.1766,3.1766,3.185,3.1851,3.1852]}]]